Weather History for Princeton, MN

Change the Weather History Date:

Friday, March 8, 2013

  Actual Average Record
Temperature  
Mean Temperature 22 °F -  
Max Temperature 37 °F 29 °F 42 °F (2006)
Min Temperature 8 °F 12 °F -9 °F (2008)
Degree Days  
Heating Degree Days 42    
Moisture  
Dew Point 18 °F    
Average Humidity 77    
Maximum Humidity 93    
Minimum Humidity 60    
Precipitation  
Precipitation 0.11 in - - ()
Sea Level Pressure  
Sea Level Pressure 30.22 in    
Wind  
Wind Speed 2 mph (ESE)    
Max Wind Speed 9 mph    
Max Gust Speed -    
Visibility 7 miles    
Events      
Averages and records for this station are not official NWS values.
T = Trace of Precipitation, MM = Missing Value Source: NWS Daily Summary

Daily Weather History Graph

Daily Weather History Graph

Search for Another Location

Airport:

Trip Planner

Search our weather history database for the weather conditions in past years. The results will help you decide how hot, cold, wet, or windy it might be!

Date:

Astronomy

Mar. 08, 2013 Rise Set
Actual Time 6:39 AM CST 6:11 PM CST
Civil Twilight 6:10 AM CST 6:40 PM CST
Nautical Twilight 5:35 AM CST 7:15 PM CST
Astronomical Twilight 5:01 AM CST 7:50 PM CST
Moon 4:32 AM CST (3/8) 3:00 PM CST (3/8)
Length of Visible Light 12h 30m
Length of Day
11h 31m
Waning Crescent, 11% of the Moon is Illuminated
Mar 8
Waning Crescent
Mar 11
New
Mar 19
First Quarter
Mar 27
Full
Apr 2
Last Quarter

Hourly Weather History & Observations

Time (CST) Temp. Windchill Dew Point Humidity Pressure Visibility Wind Dir Wind Speed Gust Speed Precip Events Conditions
12:11 AM 17.6 °F - 10.4 °F 73% 30.28 in 10.0 mi Calm Calm - N/A   Clear
12:31 AM 15.8 °F 10.2 °F 10.4 °F 79% 30.28 in 10.0 mi East 3.5 mph - N/A   Clear
12:51 AM 14.0 °F - 8.6 °F 79% 30.28 in 10.0 mi Calm Calm - N/A   Clear
1:11 AM 15.8 °F - 10.4 °F 79% 30.29 in 10.0 mi Calm Calm - N/A   Clear
1:51 AM 14.0 °F - 10.4 °F 86% 30.29 in 10.0 mi Calm Calm - N/A   Clear
2:11 AM 12.2 °F - 10.4 °F 92% 30.28 in 10.0 mi Calm Calm - N/A   Clear
2:32 AM 14.0 °F - 10.4 °F 86% 30.28 in 10.0 mi Calm Calm - N/A   Clear
2:51 AM 12.2 °F - 8.6 °F 85% 30.28 in 10.0 mi Calm Calm - N/A   Clear
3:11 AM 10.4 °F - 6.8 °F 85% 30.27 in 10.0 mi Calm Calm - N/A   Clear
3:32 AM 10.4 °F - 8.6 °F 92% 30.27 in 7.0 mi Calm Calm - N/A   Clear
3:51 AM 8.6 °F - 6.8 °F 92% 30.27 in 5.0 mi Calm Calm - N/A   Clear
4:11 AM 8.6 °F - 6.8 °F 92% 30.27 in 5.0 mi Calm Calm - N/A   Clear
4:32 AM 10.4 °F - 8.6 °F 92% 30.27 in 7.0 mi Calm Calm - N/A   Clear
4:51 AM 12.2 °F - 8.6 °F 85% 30.27 in 7.0 mi Calm Calm - N/A   Clear
5:11 AM 10.4 °F - 8.6 °F 92% 30.28 in 5.0 mi Calm Calm - N/A   Clear
5:32 AM 10.4 °F - 8.6 °F 92% 30.28 in 4.0 mi Calm Calm - N/A   Clear
5:51 AM 10.4 °F - 6.8 °F 85% 30.27 in 4.0 mi Calm Calm - N/A   Clear
6:32 AM 10.4 °F - 6.8 °F 85% 30.28 in 1.0 mi Calm Calm - N/A   Clear
6:51 AM 8.6 °F - 6.8 °F 92% 30.27 in 0.8 mi Calm Calm - N/A   Mist
7:11 AM 10.4 °F - 8.6 °F 92% 30.27 in 2.0 mi Calm Calm - N/A   Clear
7:32 AM 12.2 °F - 10.4 °F 92% 30.27 in 2.5 mi Calm Calm - N/A   Clear
7:51 AM 15.8 °F - 12.2 °F 86% 30.26 in 2.5 mi Calm Calm - N/A   Clear
8:11 AM 15.8 °F - 14.0 °F 93% 30.26 in 3.0 mi Calm Calm - N/A   Clear
8:30 AM 17.6 °F - 15.8 °F 93% 30.26 in 3.0 mi Calm Calm - N/A   Clear
8:51 AM 19.4 °F - 17.6 °F 93% 30.27 in 4.0 mi Calm Calm - N/A   Clear
9:11 AM 21.2 °F 14.9 °F 19.4 °F 93% 30.27 in 5.0 mi SSE 4.6 mph - N/A   Clear
9:31 AM 23.0 °F 17.0 °F 21.2 °F 93% 30.28 in 5.0 mi South 4.6 mph - N/A   Clear
9:51 AM 26.6 °F 17.5 °F 19.4 °F 74% 30.27 in 5.0 mi SSE 9.2 mph - N/A   Haze
10:11 AM 26.6 °F 18.2 °F 19.4 °F 74% 30.27 in 7.0 mi South 8.1 mph - N/A   Clear
10:31 AM 28.4 °F 21.2 °F 19.4 °F 69% 30.26 in 7.0 mi South 6.9 mph - N/A   Clear
10:51 AM 28.4 °F 24.6 °F 21.2 °F 74% 30.26 in 7.0 mi South 3.5 mph - N/A   Clear
11:11 AM 30.2 °F 26.7 °F 21.2 °F 69% 30.27 in 7.0 mi SSE 3.5 mph - 0.01 in   Clear
11:31 AM 30.2 °F 26.7 °F 21.2 °F 69% 30.26 in 7.0 mi SSE 3.5 mph - 0.01 in   Clear
11:51 AM 30.2 °F - 21.2 °F 69% 30.26 in 5.0 mi Calm Calm - 0.02 in   Haze
12:11 PM 33.8 °F 28.6 °F 21.2 °F 60% 30.25 in 7.0 mi SSE 5.8 mph - 0.01 in   Clear
12:31 PM 33.8 °F 27.0 °F 21.2 °F 60% 30.25 in 7.0 mi ESE 8.1 mph - 0.01 in   Clear
12:51 PM 33.8 °F 30.8 °F 23.0 °F 65% 30.24 in 7.0 mi SE 3.5 mph - 0.02 in   Clear
1:12 PM 33.8 °F 28.6 °F 23.0 °F 65% 30.23 in 7.0 mi SSE 5.8 mph - N/A   Clear
1:31 PM 33.8 °F 30.8 °F 23.0 °F 65% 30.23 in 7.0 mi SE 3.5 mph - 0.01 in   Clear
1:51 PM 35.6 °F 32.8 °F 23.0 °F 60% 30.22 in 7.0 mi ESE 3.5 mph - 0.04 in   Clear
2:11 PM 35.6 °F 29.2 °F 23.0 °F 60% 30.22 in 7.0 mi ESE 8.1 mph - 0.02 in   Clear
2:31 PM 35.6 °F 30.7 °F 23.0 °F 60% 30.22 in 7.0 mi East 5.8 mph - 0.03 in   Clear
2:51 PM 35.6 °F 29.9 °F 24.8 °F 65% 30.21 in 7.0 mi SE 6.9 mph - 0.03 in   Clear
3:11 PM 35.6 °F 30.7 °F 23.0 °F 60% 30.21 in 7.0 mi ESE 5.8 mph - N/A   Clear
3:31 PM 37.4 °F 33.8 °F 24.8 °F 60% 30.21 in 7.0 mi SE 4.6 mph - N/A   Clear
3:51 PM 37.4 °F 32.8 °F 24.8 °F 60% 30.21 in 10.0 mi SE 5.8 mph - N/A   Clear
4:11 PM 37.4 °F 32.1 °F 24.8 °F 60% 30.20 in 7.0 mi ESE 6.9 mph - N/A   Clear
4:31 PM 35.6 °F 31.7 °F 24.8 °F 65% 30.20 in 7.0 mi ESE 4.6 mph - N/A   Clear
4:51 PM 35.6 °F 31.7 °F 24.8 °F 65% 30.20 in 7.0 mi ESE 4.6 mph - N/A   Clear
5:11 PM 35.6 °F 31.7 °F 24.8 °F 65% 30.20 in 7.0 mi ESE 4.6 mph - N/A   Clear
5:32 PM 35.6 °F 30.7 °F 24.8 °F 65% 30.19 in 7.0 mi East 5.8 mph - N/A   Clear
5:51 PM 35.6 °F 31.7 °F 24.8 °F 65% 30.19 in 7.0 mi East 4.6 mph - N/A   Clear
6:11 PM 35.6 °F 32.8 °F 24.8 °F 65% 30.18 in 7.0 mi East 3.5 mph - N/A   Clear
6:32 PM 33.8 °F 30.8 °F 24.8 °F 70% 30.18 in 7.0 mi East 3.5 mph - N/A   Clear
6:51 PM 33.8 °F 30.8 °F 24.8 °F 70% 30.17 in 7.0 mi East 3.5 mph - N/A   Clear
7:11 PM 33.8 °F 30.8 °F 24.8 °F 70% 30.17 in 7.0 mi East 3.5 mph - N/A   Clear
7:32 PM 32.0 °F 28.7 °F 24.8 °F 75% 30.16 in 7.0 mi East 3.5 mph - N/A   Clear
7:51 PM 32.0 °F - 24.8 °F 75% 30.16 in 7.0 mi Calm Calm - N/A   Clear
8:11 PM 30.2 °F 26.7 °F 24.8 °F 80% 30.15 in 7.0 mi East 3.5 mph - N/A   Clear
8:32 PM 30.2 °F 25.4 °F 24.8 °F 80% 30.13 in 7.0 mi East 4.6 mph - N/A   Clear
8:51 PM 30.2 °F 25.4 °F 24.8 °F 80% 30.13 in 7.0 mi ENE 4.6 mph - N/A   Clear
9:11 PM 30.2 °F 26.7 °F 24.8 °F 80% 30.13 in 7.0 mi ENE 3.5 mph - N/A   Clear
9:31 PM 30.2 °F 25.4 °F 24.8 °F 80% 30.12 in 7.0 mi East 4.6 mph - N/A   Clear
9:51 PM 30.2 °F 26.7 °F 24.8 °F 80% 30.12 in 7.0 mi East 3.5 mph - N/A   Clear
10:11 PM 30.2 °F 26.7 °F 24.8 °F 80% 30.11 in 7.0 mi East 3.5 mph - N/A   Clear
10:51 PM 30.2 °F 26.7 °F 24.8 °F 80% 30.10 in 7.0 mi East 3.5 mph - N/A   Clear
11:11 PM 30.2 °F 26.7 °F 24.8 °F 80% 30.09 in 7.0 mi East 3.5 mph - N/A   Scattered Clouds
11:31 PM 30.2 °F 25.4 °F 24.8 °F 80% 30.07 in 7.0 mi ENE 4.6 mph - N/A   Scattered Clouds
11:51 PM 30.2 °F 26.7 °F 24.8 °F 80% 30.07 in 7.0 mi ENE 3.5 mph - N/A   Scattered Clouds